Temp
11 12 14 15 14 14 14 14 13 13 13 13 14 13 12 12 12 12 12 11 12 14
7 9 11 12 14 14 14 14 14 14 13 13 12 13 13 12 11 11 12 11 12 12
4 5 7 9 11 13 14 14 14 13 13 13 12 12 12 11 11 11 11 11 11 11
3 4 4 6 8 9 11 12 13 13 13 13 13 12 11 11 11 11 11 10 10 10
1 2 3 3 5 6 8 10 11 12 13 13 13 12 12 12 11 10 10 10 10 10
-1 1 1 2 2 4 6 8 9 10 10 12 12 12 12 12 11 11 11 11 10 10
-2 -2 -1 -0 0 2 4 5 6 7 9 9 11 12 12 12 11 11 11 11 11 11
-2 -2 -1 -1 -1 0 1 3 4 5 6 7 7 10 11 11 11 11 11 10 10 11
-3 -2 -3 -1 -1 -2 -1 0 2 3 4 6 5 6 9 9 10 11 10 10 10 10
-4 -3 -3 -3 -2 -2 -2 -2 -1 1 1 3 4 3 4 7 8 8 10 10 10 10
-4 -3 -3 -3 -3 -3 -3 -3 -2 -2 -1 0 2 2 2 2 5 6 7 9 10 10
-4 -4 -4 -4 -4 -3 -3 -3 -3 -2 -2 -2 -1 1 1 1 2 3 5 7 8 9
-4 -4 -4 -4 -4 -4 -4 -3 -4 -3 -2 -2 -2 -1 -1 -0 0 1 2 3 6 7
-4 -4 -4 -4 -4 -4 -4 -5 -5 -5 -4 -3 -3 -3 -2 -1 -0 0 1 1 2 4
Height
765 768 769 772 776 778 781 784 789 792 796 798 800 806 811 815 818 823 826 831 833 837
767 768 768 771 773 776 778 780 782 785 788 793 795 797 802 807 811 815 819 822 826 829
770 771 771 771 771 772 774 775 777 780 782 784 790 793 795 799 803 807 810 814 818 821
773 774 775 772 771 771 770 771 773 774 776 779 782 784 788 792 794 798 802 805 808 811
776 775 774 773 772 770 769 769 768 771 771 771 774 776 778 783 788 790 793 795 798 800
777 774 773 775 772 769 768 766 765 765 766 766 767 767 768 770 776 778 780 784 786 789
779 776 773 775 776 772 765 764 763 761 761 759 760 759 760 762 763 766 771 773 773 778
780 779 773 772 772 772 766 763 759 756 756 755 756 755 755 754 754 755 758 763 765 765
782 779 776 771 770 768 768 764 755 751 752 749 751 752 749 747 747 745 744 747 751 757
781 778 776 773 770 769 765 763 753 749 749 746 746 748 745 742 740 739 735 738 738 742
779 774 773 771 767 767 766 762 757 749 746 744 742 741 739 740 734 734 733 732 733 732
779 776 773 772 770 767 762 759 754 750 745 742 742 739 736 735 729 727 727 724 723 724
777 775 772 769 766 764 761 756 751 747 745 741 739 735 732 731 729 725 722 716 712 715
773 770 768 765 761 759 756 752 750 746 742 741 734 735 731 725 725 722 716 712 706 705
Wind_Speed
9 5 7 17 19 24 29 32 34 39 40 45 46 46 46 45 46 46 45 38 39 41
15 12 7 7 15 24 27 30 34 38 43 41 41 46 47 45 43 44 45 43 43 41
18 15 12 7 6 14 24 28 33 39 39 40 39 40 43 41 40 39 41 41 41 44
20 19 16 11 10 8 8 13 25 32 36 37 40 43 41 37 37 42 40 40 40 43
19 19 20 18 15 14 11 9 11 17 31 38 41 42 43 43 39 38 39 40 40 42
22 19 20 22 20 15 14 13 13 12 14 30 35 39 44 46 43 44 47 44 42 42
23 20 18 19 21 19 15 14 15 15 15 16 21 40 42 41 43 41 44 44 45 45
21 20 19 19 21 21 19 15 14 16 17 18 22 15 31 41 44 43 44 44 43 47
20 22 21 20 22 22 21 20 16 15 19 19 21 23 21 14 33 45 44 41 43 45
19 21 21 21 21 22 23 24 20 18 18 20 22 24 21 21 20 25 36 40 40 40
20 21 21 22 22 22 22 24 23 21 21 22 22 23 24 22 21 26 25 28 40 42
18 19 19 19 19 19 22 25 23 23 22 22 23 19 21 21 21 24 29 29 28 28
15 16 18 18 19 18 20 21 22 23 21 20 23 20 16 17 20 23 27 28 28 31
14 16 16 17 17 20 22 19 20 19 24 22 17 20 18 15 19 22 24 23 23 26
Wind_Direction
35 10 282 258 236 222 216 219 214 215 215 217 221 218 219 218 217 217 220 221 222 223
18 13 346 293 260 243 236 229 224 228 218 218 217 218 221 218 218 219 222 223 227 226
13 2 355 340 327 251 243 234 225 218 222 219 222 220 219 217 220 219 221 223 224 228
15 7 356 347 332 325 277 251 249 232 228 227 227 222 220 219 218 221 222 224 223 226
7 7 1 356 342 330 309 288 269 258 242 231 225 223 224 226 224 222 221 221 220 226
3 5 2 352 346 341 326 311 294 283 273 239 229 225 227 228 226 224 225 223 220 222
6 3 5 349 339 338 341 328 316 301 285 281 260 230 224 229 226 231 226 226 222 224
7 0 5 359 348 338 339 330 324 320 303 292 285 278 244 234 226 220 223 225 228 228
6 6 2 2 355 347 340 332 333 326 316 312 302 289 267 274 243 225 224 222 223 231
359 1 2 359 358 352 350 341 340 333 326 312 303 308 304 281 279 269 232 232 234 234
351 355 355 355 356 349 345 341 339 340 334 323 313 313 311 305 281 275 269 249 238 233
341 340 343 344 341 343 343 339 338 335 337 332 320 318 316 310 298 283 272 263 259 252
332 332 329 331 332 332 336 332 334 332 334 333 323 325 316 309 300 291 285 278 264 260
320 324 326 322 325 329 330 327 327 323 331 331 340 327 319 314 301 294 292 285 278 267